Time,TemperatureF,DewpointF,PressureIn,WindDirection,WindDirectionDegrees,WindSpeedMPH,WindSpeedGustMPH,Humidity,HourlyPrecipIn,Conditions,Clouds,dailyrainin,SoftwareType,DateUTC
2013-07-06 00:00:00,70.7,68.9,30.08,WSW,247,0.0,2.0,94,0.00,,---,0.00,VWS V14.01,2013-07-06 05:00:00,
2013-07-06 00:01:00,70.7,68.9,30.08,NW,318,0.0,0.0,94,0.00,,---,0.00,VWS V14.01,2013-07-06 05:01:00,
2013-07-06 00:06:00,70.7,68.6,30.08,NW,316,0.0,0.0,93,0.00,,---,0.00,VWS V14.01,2013-07-06 05:06:00,
2013-07-06 00:11:00,70.7,68.6,30.08,NW,312,0.0,0.0,93,0.00,,---,0.00,VWS V14.01,2013-07-06 05:11:00,
2013-07-06 00:16:00,70.7,68.6,30.08,North,10,0.0,0.0,93,0.00,,---,0.00,VWS V14.01,2013-07-06 05:16:00,
2013-07-06 00:21:00,70.6,68.5,30.08,North,10,0.0,0.0,93,0.00,,---,0.00,VWS V14.01,2013-07-06 05:21:00,
2013-07-06 00:26:00,70.5,68.4,30.08,North,11,0.0,0.0,93,0.00,,---,0.00,VWS V14.01,2013-07-06 05:26:00,
2013-07-06 00:30:00,70.5,68.4,30.08,North,11,0.0,0.0,93,0.00,,---,0.00,VWS V14.01,2013-07-06 05:30:00,
2013-07-06 00:31:00,70.5,68.4,30.08,NW,325,0.0,0.0,93,0.00,,---,0.00,VWS V14.01,2013-07-06 05:31:00,
2013-07-06 00:36:00,70.4,68.6,30.08,NW,325,0.0,0.0,94,0.00,,---,0.00,VWS V14.01,2013-07-06 05:36:00,
2013-07-06 00:41:00,70.3,68.5,30.08,NW,325,0.0,0.0,94,0.00,,---,0.00,VWS V14.01,2013-07-06 05:41:00,
2013-07-06 00:46:00,70.3,68.5,30.08,WSW,243,0.0,2.0,94,0.00,,---,0.00,VWS V14.01,2013-07-06 05:46:00,
2013-07-06 00:51:00,70.3,68.5,30.08,West,267,0.0,2.0,94,0.00,,---,0.00,VWS V14.01,2013-07-06 05:51:00,
2013-07-06 00:56:00,70.2,68.4,30.08,West,266,0.0,2.0,94,0.00,,---,0.00,VWS V14.01,2013-07-06 05:56:00,
2013-07-06 01:00:00,70.2,68.4,30.08,West,267,0.0,2.0,94,0.00,,---,0.00,VWS V14.01,2013-07-06 06:00:00,
2013-07-06 01:01:00,70.1,68.3,30.08,West,267,0.0,0.0,94,0.00,,---,0.00,VWS V14.01,2013-07-06 06:01:00,
2013-07-06 01:06:00,70.0,68.2,30.08,West,267,0.0,0.0,94,0.00,,---,0.00,VWS V14.01,2013-07-06 06:06:00,
2013-07-06 01:11:00,70.0,68.2,30.08,West,267,0.0,0.0,94,0.00,,---,0.00,VWS V14.01,2013-07-06 06:11:00,
2013-07-06 01:16:00,69.8,68.0,30.08,West,267,0.0,0.0,94,0.00,,---,0.00,VWS V14.01,2013-07-06 06:16:00,
2013-07-06 01:21:00,69.7,67.9,30.08,West,263,0.0,0.0,94,0.00,,---,0.00,VWS V14.01,2013-07-06 06:21:00,
2013-07-06 01:26:00,69.7,67.9,30.08,SE,134,0.0,0.0,94,0.00,,---,0.00,VWS V14.01,2013-07-06 06:26:00,
2013-07-06 01:30:00,69.7,67.9,30.08,SE,134,0.0,0.0,94,0.00,,---,0.00,VWS V14.01,2013-07-06 06:30:00,
2013-07-06 01:31:00,69.7,68.2,30.08,NNW,333,0.0,0.0,95,0.00,,---,0.00,VWS V14.01,2013-07-06 06:31:00,
2013-07-06 01:36:00,69.5,68.0,30.08,West,271,0.0,2.0,95,0.00,,---,0.00,VWS V14.01,2013-07-06 06:36:00,
2013-07-06 01:41:00,69.5,68.0,30.08,West,271,0.0,2.0,95,0.00,,---,0.00,VWS V14.01,2013-07-06 06:41:00,
2013-07-06 01:46:00,69.5,68.0,30.08,West,271,0.0,2.0,95,0.00,,---,0.00,VWS V14.01,2013-07-06 06:46:00,
2013-07-06 01:51:00,69.4,67.9,30.08,West,271,0.0,2.0,95,0.00,,---,0.00,VWS V14.01,2013-07-06 06:51:00,
2013-07-06 01:56:00,69.4,67.9,30.08,SE,137,0.0,2.0,95,0.00,,---,0.00,VWS V14.01,2013-07-06 06:56:00,
2013-07-06 02:00:00,69.3,67.8,30.08,SE,136,0.0,2.0,95,0.00,,---,0.00,VWS V14.01,2013-07-06 07:00:00,
2013-07-06 02:01:00,69.3,67.8,30.08,SE,136,0.0,0.0,95,0.00,,---,0.00,VWS V14.01,2013-07-06 07:01:00,
2013-07-06 02:06:00,69.2,67.7,30.09,SE,136,0.0,0.0,95,0.00,,---,0.00,VWS V14.01,2013-07-06 07:06:00,
2013-07-06 02:11:00,69.2,68.0,30.09,SW,226,0.0,0.0,96,0.00,,---,0.00,VWS V14.01,2013-07-06 07:11:00,
2013-07-06 02:16:00,69.2,68.0,30.09,SW,226,0.0,0.0,96,0.00,,---,0.00,VWS V14.01,2013-07-06 07:16:00,
2013-07-06 02:21:00,69.2,68.0,30.08,WSW,243,0.0,0.0,96,0.00,,---,0.00,VWS V14.01,2013-07-06 07:21:00,
2013-07-06 02:26:00,69.2,67.7,30.08,WSW,243,0.0,0.0,95,0.00,,---,0.00,VWS V14.01,2013-07-06 07:26:00,
2013-07-06 02:30:00,69.2,67.7,30.08,WSW,243,0.0,0.0,95,0.00,,---,0.00,VWS V14.01,2013-07-06 07:30:00,
2013-07-06 02:31:00,69.2,67.7,30.08,SSW,210,0.0,1.0,95,0.00,,---,0.00,VWS V14.01,2013-07-06 07:31:00,
2013-07-06 02:36:00,69.2,68.0,30.08,SSW,210,0.0,1.0,96,0.00,,---,0.00,VWS V14.01,2013-07-06 07:36:00,
2013-07-06 02:41:00,69.2,68.0,30.08,SSW,210,0.0,1.0,96,0.00,,---,0.00,VWS V14.01,2013-07-06 07:41:00,
2013-07-06 02:46:00,69.1,67.9,30.08,SSW,210,0.0,1.0,96,0.00,,---,0.00,VWS V14.01,2013-07-06 07:46:00,
2013-07-06 02:51:00,69.1,67.9,30.08,SSW,210,0.0,1.0,96,0.00,,---,0.00,VWS V14.01,2013-07-06 07:51:00,
2013-07-06 02:56:00,69.0,67.8,30.08,SSW,210,0.0,1.0,96,0.00,,---,0.00,VWS V14.01,2013-07-06 07:56:00,
2013-07-06 03:00:00,69.0,67.8,30.08,SSW,210,0.0,1.0,96,0.00,,---,0.00,VWS V14.01,2013-07-06 08:00:00,
2013-07-06 03:01:00,68.9,67.7,30.07,SSW,210,0.0,0.0,96,0.00,,---,0.00,VWS V14.01,2013-07-06 08:01:00,
2013-07-06 03:06:00,68.9,67.7,30.07,SSW,210,0.0,0.0,96,0.00,,---,0.00,VWS V14.01,2013-07-06 08:06:00,
2013-07-06 03:11:00,68.8,67.6,30.07,SSW,210,0.0,0.0,96,0.00,,---,0.00,VWS V14.01,2013-07-06 08:11:00,
2013-07-06 03:16:00,68.8,67.6,30.07,SSW,210,0.0,0.0,96,0.00,,---,0.00,VWS V14.01,2013-07-06 08:16:00,
2013-07-06 03:21:00,68.8,67.6,30.07,SSW,210,0.0,0.0,96,0.00,,---,0.00,VWS V14.01,2013-07-06 08:21:00,
2013-07-06 03:26:00,68.7,67.5,30.07,SSW,210,0.0,0.0,96,0.00,,---,0.00,VWS V14.01,2013-07-06 08:26:00,
2013-07-06 03:30:00,68.7,67.5,30.07,SSW,210,0.0,0.0,96,0.00,,---,0.00,VWS V14.01,2013-07-06 08:30:00,
2013-07-06 03:31:00,68.7,67.5,30.07,SSW,210,0.0,0.0,96,0.00,,---,0.00,VWS V14.01,2013-07-06 08:31:00,
2013-07-06 03:36:00,68.6,67.4,30.07,SSW,210,0.0,0.0,96,0.00,,---,0.00,VWS V14.01,2013-07-06 08:36:00,
2013-07-06 03:41:00,68.6,67.4,30.07,SSW,210,0.0,0.0,96,0.00,,---,0.00,VWS V14.01,2013-07-06 08:41:00,
2013-07-06 03:46:00,68.5,67.3,30.07,SSW,210,0.0,0.0,96,0.00,,---,0.00,VWS V14.01,2013-07-06 08:46:00,
2013-07-06 03:51:00,68.4,67.2,30.07,SSW,210,0.0,0.0,96,0.00,,---,0.00,VWS V14.01,2013-07-06 08:51:00,
2013-07-06 03:56:00,68.3,67.4,30.07,SSW,210,0.0,0.0,97,0.00,,---,0.00,VWS V14.01,2013-07-06 08:56:00,
2013-07-06 04:00:00,68.3,67.4,30.07,SSW,210,0.0,0.0,97,0.00,,---,0.00,VWS V14.01,2013-07-06 09:00:00,
2013-07-06 04:01:00,68.3,67.4,30.08,SSW,210,0.0,0.0,97,0.00,,---,0.00,VWS V14.01,2013-07-06 09:01:00,
2013-07-06 04:06:00,68.2,67.3,30.07,SSW,210,0.0,0.0,97,0.00,,---,0.00,VWS V14.01,2013-07-06 09:06:00,
2013-07-06 04:11:00,68.2,67.3,30.07,SSW,210,0.0,0.0,97,0.00,,---,0.00,VWS V14.01,2013-07-06 09:11:00,
2013-07-06 04:16:00,68.2,67.3,30.08,SSW,210,0.0,0.0,97,0.00,,---,0.00,VWS V14.01,2013-07-06 09:16:00,
2013-07-06 04:21:00,68.2,67.3,30.08,SSW,210,0.0,0.0,97,0.00,,---,0.00,VWS V14.01,2013-07-06 09:21:00,
2013-07-06 04:26:00,68.1,67.2,30.08,SSW,210,0.0,0.0,97,0.00,,---,0.00,VWS V14.01,2013-07-06 09:26:00,
2013-07-06 04:30:00,68.1,67.2,30.08,SSW,210,0.0,0.0,97,0.00,,---,0.00,VWS V14.01,2013-07-06 09:30:00,
2013-07-06 04:31:00,68.0,67.1,30.08,SSW,210,0.0,0.0,97,0.00,,---,0.00,VWS V14.01,2013-07-06 09:31:00,
2013-07-06 04:36:00,67.8,66.9,30.08,SSW,210,0.0,0.0,97,0.00,,---,0.00,VWS V14.01,2013-07-06 09:36:00,
2013-07-06 04:41:00,67.9,67.0,30.08,SSW,210,0.0,0.0,97,0.00,,---,0.00,VWS V14.01,2013-07-06 09:41:00,
2013-07-06 04:46:00,67.9,67.3,30.08,SSW,210,0.0,0.0,98,0.00,,---,0.00,VWS V14.01,2013-07-06 09:46:00,
2013-07-06 04:51:00,67.9,67.3,30.08,SSW,210,0.0,0.0,98,0.00,,---,0.00,VWS V14.01,2013-07-06 09:51:00,
2013-07-06 04:56:00,67.9,67.3,30.08,SSW,210,0.0,0.0,98,0.00,,---,0.00,VWS V14.01,2013-07-06 09:56:00,
2013-07-06 05:00:00,67.8,67.2,30.08,SSW,210,0.0,0.0,98,0.00,,---,0.00,VWS V14.01,2013-07-06 10:00:00,
2013-07-06 05:01:00,67.8,67.2,30.08,SSW,210,0.0,0.0,98,0.00,,---,0.00,VWS V14.01,2013-07-06 10:01:00,
2013-07-06 05:06:00,67.7,67.1,30.08,SSW,210,0.0,0.0,98,0.00,,---,0.00,VWS V14.01,2013-07-06 10:06:00,
2013-07-06 05:11:00,67.6,67.0,30.08,SSW,210,0.0,0.0,98,0.00,,---,0.00,VWS V14.01,2013-07-06 10:11:00,
2013-07-06 05:16:00,67.6,67.0,30.08,SSW,210,0.0,0.0,98,0.00,,---,0.00,VWS V14.01,2013-07-06 10:16:00,
2013-07-06 05:21:00,67.7,67.1,30.08,SSW,210,0.0,0.0,98,0.00,,---,0.00,VWS V14.01,2013-07-06 10:21:00,
2013-07-06 05:26:00,67.7,67.1,30.08,SSW,210,0.0,0.0,98,0.00,,---,0.00,VWS V14.01,2013-07-06 10:26:00,
2013-07-06 05:30:00,67.7,67.1,30.08,SSW,210,0.0,0.0,98,0.00,,---,0.00,VWS V14.01,2013-07-06 10:30:00,
2013-07-06 05:31:00,67.7,67.1,30.08,SSW,210,0.0,0.0,98,0.00,,---,0.00,VWS V14.01,2013-07-06 10:31:00,
2013-07-06 05:36:00,67.7,67.1,30.08,SSW,210,0.0,0.0,98,0.00,,---,0.00,VWS V14.01,2013-07-06 10:36:00,
2013-07-06 05:41:00,67.7,67.1,30.08,SSW,210,0.0,0.0,98,0.00,,---,0.00,VWS V14.01,2013-07-06 10:41:00,
2013-07-06 05:46:00,67.7,67.1,30.08,SSW,210,0.0,0.0,98,0.00,,---,0.00,VWS V14.01,2013-07-06 10:46:00,
2013-07-06 05:51:00,67.7,67.1,30.09,WSW,242,0.0,0.0,98,0.00,,---,0.00,VWS V14.01,2013-07-06 10:51:00,
2013-07-06 05:56:00,67.8,67.5,30.08,SW,231,0.0,0.0,99,0.00,,---,0.00,VWS V14.01,2013-07-06 10:56:00,
2013-07-06 06:00:00,67.8,67.5,30.08,SW,231,0.0,0.0,99,0.00,,---,0.00,VWS V14.01,2013-07-06 11:00:00,
2013-07-06 06:01:00,67.9,67.6,30.09,SW,231,0.0,0.0,99,0.00,,---,0.00,VWS V14.01,2013-07-06 11:01:00,
2013-07-06 06:06:00,67.9,67.3,30.09,SW,231,0.0,0.0,98,0.00,,---,0.00,VWS V14.01,2013-07-06 11:06:00,
2013-07-06 06:11:00,68.0,67.7,30.09,SW,226,0.0,0.0,99,0.00,,---,0.00,VWS V14.01,2013-07-06 11:11:00,
2013-07-06 06:16:00,68.0,67.7,30.09,SW,228,0.0,0.0,99,0.00,,---,0.00,VWS V14.01,2013-07-06 11:16:00,
2013-07-06 06:21:00,68.1,67.8,30.09,SW,228,0.0,0.0,99,0.00,,---,0.00,VWS V14.01,2013-07-06 11:21:00,
2013-07-06 06:26:00,68.1,67.8,30.09,SW,228,0.0,0.0,99,0.00,,---,0.00,VWS V14.01,2013-07-06 11:26:00,
2013-07-06 06:30:00,68.2,67.9,30.09,SW,228,0.0,0.0,99,0.00,,---,0.00,VWS V14.01,2013-07-06 11:30:00,
2013-07-06 06:31:00,68.3,68.0,30.09,West,273,0.0,0.0,99,0.00,,---,0.00,VWS V14.01,2013-07-06 11:31:00,
2013-07-06 06:36:00,68.7,68.4,30.09,West,273,0.0,0.0,99,0.00,,---,0.00,VWS V14.01,2013-07-06 11:36:00,
2013-07-06 06:41:00,69.0,68.7,30.09,WSW,239,2.0,2.0,99,0.00,,---,0.00,VWS V14.01,2013-07-06 11:41:00,
2013-07-06 06:46:00,69.4,69.1,30.09,SE,139,0.0,2.0,99,0.00,,---,0.00,VWS V14.01,2013-07-06 11:46:00,
2013-07-06 06:51:00,69.8,69.5,30.09,SSW,195,0.0,2.0,99,0.00,,---,0.00,VWS V14.01,2013-07-06 11:51:00,
2013-07-06 06:56:00,70.0,69.7,30.09,West,276,0.0,2.0,99,0.00,,---,0.00,VWS V14.01,2013-07-06 11:56:00,
2013-07-06 07:00:00,70.0,69.4,30.09,West,270,2.0,2.0,98,0.00,,---,0.00,VWS V14.01,2013-07-06 12:00:00,
2013-07-06 07:01:00,70.1,69.5,30.09,SE,144,1.0,3.0,98,0.00,,---,0.00,VWS V14.01,2013-07-06 12:01:00,
2013-07-06 07:06:00,70.4,69.8,30.09,WSW,240,0.0,3.0,98,0.00,,---,0.00,VWS V14.01,2013-07-06 12:06:00,
2013-07-06 07:11:00,70.7,70.1,30.09,WSW,249,1.0,3.0,98,0.00,,---,0.00,VWS V14.01,2013-07-06 12:11:00,
2013-07-06 07:16:00,70.9,70.0,30.09,West,263,0.0,3.0,97,0.00,,---,0.00,VWS V14.01,2013-07-06 12:16:00,
2013-07-06 07:21:00,71.4,70.5,30.09,SE,141,1.0,3.0,97,0.00,,---,0.00,VWS V14.01,2013-07-06 12:21:00,
2013-07-06 07:26:00,71.6,70.4,30.09,SW,235,0.0,3.0,96,0.00,,---,0.00,VWS V14.01,2013-07-06 12:26:00,
2013-07-06 07:30:00,71.8,70.6,30.09,South,186,0.0,3.0,96,0.00,,---,0.00,VWS V14.01,2013-07-06 12:30:00,
2013-07-06 07:31:00,71.9,70.4,30.09,WSW,239,0.0,3.0,95,0.00,,---,0.00,VWS V14.01,2013-07-06 12:31:00,
2013-07-06 07:36:00,72.6,71.1,30.09,ESE,114,0.0,3.0,95,0.00,,---,0.00,VWS V14.01,2013-07-06 12:36:00,
2013-07-06 07:41:00,73.3,71.5,30.09,SSW,207,0.0,3.0,94,0.00,,---,0.00,VWS V14.01,2013-07-06 12:41:00,
2013-07-06 07:46:00,73.7,71.2,30.10,SW,224,0.0,3.0,92,0.00,,---,0.00,VWS V14.01,2013-07-06 12:46:00,
2013-07-06 07:51:00,73.8,71.0,30.10,West,270,1.0,3.0,91,0.00,,---,0.00,VWS V14.01,2013-07-06 12:51:00,
2013-07-06 07:56:00,73.8,71.0,30.10,SSW,198,0.0,3.0,91,0.00,,---,0.00,VWS V14.01,2013-07-06 12:56:00,
2013-07-06 08:00:00,73.9,71.1,30.10,West,260,1.0,3.0,91,0.00,,---,0.00,VWS V14.01,2013-07-06 13:00:00,
2013-07-06 08:01:00,74.1,71.3,30.10,SW,219,0.0,1.0,91,0.00,,---,0.00,VWS V14.01,2013-07-06 13:01:00,
2013-07-06 08:06:00,74.4,71.6,30.10,SE,142,0.0,1.0,91,0.00,,---,0.00,VWS V14.01,2013-07-06 13:06:00,
2013-07-06 08:11:00,74.6,71.5,30.10,SW,219,2.0,3.0,90,0.00,,---,0.00,VWS V14.01,2013-07-06 13:11:00,
2013-07-06 08:16:00,74.6,71.2,30.10,North,9,1.0,4.0,89,0.00,,---,0.00,VWS V14.01,2013-07-06 13:16:00,
2013-07-06 08:21:00,74.8,71.7,30.10,WNW,283,0.0,4.0,90,0.00,,---,0.00,VWS V14.01,2013-07-06 13:21:00,
2013-07-06 08:26:00,75.0,71.5,30.09,NNE,20,0.0,4.0,89,0.00,,---,0.00,VWS V14.01,2013-07-06 13:26:00,
2013-07-06 08:30:00,75.1,72.0,30.10,WSW,242,0.0,4.0,90,0.00,,---,0.00,VWS V14.01,2013-07-06 13:30:00,
2013-07-06 08:31:00,75.2,71.7,30.09,ESE,117,1.0,4.0,89,0.00,,---,0.00,VWS V14.01,2013-07-06 13:31:00,
2013-07-06 08:36:00,75.1,71.3,30.10,ESE,105,0.0,4.0,88,0.00,,---,0.00,VWS V14.01,2013-07-06 13:36:00,
2013-07-06 08:41:00,75.0,71.5,30.09,NW,318,0.0,4.0,89,0.00,,---,0.00,VWS V14.01,2013-07-06 13:41:00,
2013-07-06 08:46:00,75.1,71.3,30.10,West,281,0.0,4.0,88,0.00,,---,0.00,VWS V14.01,2013-07-06 13:46:00,
2013-07-06 08:51:00,75.3,71.8,30.09,WSW,239,1.0,4.0,89,0.00,,---,0.00,VWS V14.01,2013-07-06 13:51:00,
2013-07-06 08:56:00,75.6,71.8,30.09,SSW,194,0.0,4.0,88,0.00,,---,0.00,VWS V14.01,2013-07-06 13:56:00,
2013-07-06 09:00:00,75.7,71.9,30.09,SSW,194,0.0,4.0,88,0.00,,---,0.00,VWS V14.01,2013-07-06 14:00:00,
2013-07-06 09:01:00,75.9,72.1,30.09,SW,226,0.0,2.0,88,0.00,,---,0.00,VWS V14.01,2013-07-06 14:01:00,
2013-07-06 09:06:00,76.0,71.9,30.09,South,186,2.0,2.0,87,0.00,,---,0.00,VWS V14.01,2013-07-06 14:06:00,
2013-07-06 09:11:00,76.1,71.6,30.09,South,186,2.0,3.0,86,0.00,,---,0.00,VWS V14.01,2013-07-06 14:11:00,
2013-07-06 09:16:00,76.1,71.6,30.09,SW,217,1.0,3.0,86,0.00,,---,0.00,VWS V14.01,2013-07-06 14:16:00,
2013-07-06 09:21:00,76.2,71.7,30.08,East,81,1.0,3.0,86,0.00,,---,0.00,VWS V14.01,2013-07-06 14:21:00,
2013-07-06 09:26:00,76.7,72.2,30.09,SW,225,1.0,3.0,86,0.00,,---,0.00,VWS V14.01,2013-07-06 14:26:00,
2013-07-06 09:30:00,76.8,71.9,30.08,SW,236,2.0,4.0,85,0.00,,---,0.00,VWS V14.01,2013-07-06 14:30:00,
2013-07-06 09:31:00,76.6,71.8,30.08,WSW,252,0.0,3.0,85,0.00,,---,0.00,VWS V14.01,2013-07-06 14:31:00,
2013-07-06 09:36:00,76.6,72.1,30.08,SW,218,2.0,3.0,86,0.00,,---,0.00,VWS V14.01,2013-07-06 14:36:00,
2013-07-06 09:41:00,76.5,71.7,30.08,West,269,0.0,3.0,85,0.00,,---,0.00,VWS V14.01,2013-07-06 14:41:00,
2013-07-06 09:46:00,76.4,71.9,30.08,WSW,248,1.0,3.0,86,0.00,,---,0.00,VWS V14.01,2013-07-06 14:46:00,
2013-07-06 09:51:00,76.4,71.6,30.08,SSW,207,0.0,3.0,85,0.00,,---,0.00,VWS V14.01,2013-07-06 14:51:00,
2013-07-06 09:56:00,76.4,71.6,30.08,SW,231,0.0,3.0,85,0.00,,---,0.00,VWS V14.01,2013-07-06 14:56:00,
2013-07-06 10:00:00,76.5,72.0,30.08,South,170,2.0,3.0,86,0.00,,---,0.00,VWS V14.01,2013-07-06 15:00:00,
2013-07-06 10:01:00,76.6,71.4,30.08,ESE,103,0.0,2.0,84,0.00,,---,0.00,VWS V14.01,2013-07-06 15:01:00,
2013-07-06 10:06:00,77.1,72.2,30.08,ESE,111,0.0,2.0,85,0.00,,---,0.00,VWS V14.01,2013-07-06 15:06:00,
2013-07-06 10:11:00,78.2,73.0,30.08,SSE,164,2.0,4.0,84,0.00,,---,0.00,VWS V14.01,2013-07-06 15:11:00,
2013-07-06 10:16:00,78.0,71.3,30.08,SE,136,1.0,4.0,80,0.00,,---,0.00,VWS V14.01,2013-07-06 15:16:00,
2013-07-06 10:21:00,77.8,71.9,30.08,WSW,254,2.0,4.0,82,0.00,,---,0.00,VWS V14.01,2013-07-06 15:21:00,
2013-07-06 10:26:00,77.7,71.4,30.09,WSW,252,0.0,4.0,81,0.00,,---,0.00,VWS V14.01,2013-07-06 15:26:00,
2013-07-06 10:30:00,77.6,71.7,30.08,ESE,118,2.0,4.0,82,0.00,,---,0.00,VWS V14.01,2013-07-06 15:30:00,
2013-07-06 10:31:00,77.6,71.7,30.09,SE,146,0.0,2.0,82,0.00,,---,0.00,VWS V14.01,2013-07-06 15:31:00,
2013-07-06 10:36:00,77.6,72.0,30.09,SW,218,0.0,2.0,83,0.00,,---,0.00,VWS V14.01,2013-07-06 15:36:00,
2013-07-06 10:41:00,78.1,72.2,30.09,SE,124,0.0,2.0,82,0.00,,---,0.00,VWS V14.01,2013-07-06 15:41:00,
2013-07-06 10:46:00,78.2,72.3,30.08,WSW,244,2.0,3.0,82,0.00,,---,0.00,VWS V14.01,2013-07-06 15:46:00,
2013-07-06 10:51:00,78.2,71.9,30.08,SSE,157,0.0,3.0,81,0.00,,---,0.00,VWS V14.01,2013-07-06 15:51:00,
2013-07-06 10:56:00,78.4,72.1,30.08,WSW,239,0.0,3.0,81,0.00,,---,0.00,VWS V14.01,2013-07-06 15:56:00,
2013-07-06 11:00:00,78.5,71.8,30.08,SW,236,0.0,3.0,80,0.00,,---,0.00,VWS V14.01,2013-07-06 16:00:00,
2013-07-06 11:01:00,78.6,71.9,30.08,WSW,252,4.0,4.0,80,0.00,,---,0.00,VWS V14.01,2013-07-06 16:01:00,
2013-07-06 11:06:00,78.6,72.3,30.08,West,260,3.0,4.0,81,0.00,,---,0.00,VWS V14.01,2013-07-06 16:06:00,
2013-07-06 11:11:00,78.9,71.8,30.08,WSW,240,0.0,4.0,79,0.00,,---,0.00,VWS V14.01,2013-07-06 16:11:00,
2013-07-06 11:16:00,79.5,73.2,30.08,ESE,115,0.0,4.0,81,0.00,,---,0.00,VWS V14.01,2013-07-06 16:16:00,
2013-07-06 11:21:00,79.4,71.9,30.07,West,276,1.0,4.0,78,0.00,,---,0.00,VWS V14.01,2013-07-06 16:21:00,
2013-07-06 11:26:00,79.2,71.4,30.07,SSW,210,1.0,4.0,77,0.00,,---,0.00,VWS V14.01,2013-07-06 16:26:00,
2013-07-06 11:30:00,79.2,71.8,30.07,WSW,240,0.0,4.0,78,0.00,,---,0.00,VWS V14.01,2013-07-06 16:30:00,
2013-07-06 11:31:00,79.1,72.0,30.07,East,101,0.0,2.0,79,0.00,,---,0.00,VWS V14.01,2013-07-06 16:31:00,
2013-07-06 11:36:00,78.9,72.2,30.07,SSE,149,0.0,2.0,80,0.00,,---,0.00,VWS V14.01,2013-07-06 16:36:00,
2013-07-06 11:42:00,78.8,72.1,30.07,SSW,198,1.0,2.0,80,0.00,,---,0.00,VWS V14.01,2013-07-06 16:42:00,
2013-07-06 11:47:00,78.8,72.1,30.07,SW,218,1.0,2.0,80,0.00,,---,0.00,VWS V14.01,2013-07-06 16:47:00,
2013-07-06 11:52:00,78.2,71.5,30.07,SW,214,0.0,3.0,80,0.00,,---,0.00,VWS V14.01,2013-07-06 16:52:00,
2013-07-06 11:57:00,78.1,71.8,30.06,East,88,0.0,3.0,81,0.00,,---,0.00,VWS V14.01,2013-07-06 16:57:00,
2013-07-06 12:00:00,78.1,71.8,30.06,East,89,0.0,3.0,81,0.00,,---,0.00,VWS V14.01,2013-07-06 17:00:00,
2013-07-06 12:02:00,78.8,72.5,30.06,SSW,207,1.0,1.0,81,0.00,,---,0.00,VWS V14.01,2013-07-06 17:02:00,
2013-07-06 12:07:00,79.3,71.8,30.06,SW,236,1.0,3.0,78,0.00,,---,0.00,VWS V14.01,2013-07-06 17:07:00,
2013-07-06 12:12:00,79.6,72.5,30.06,ESE,120,0.0,3.0,79,0.00,,---,0.00,VWS V14.01,2013-07-06 17:12:00,
2013-07-06 12:17:00,79.6,71.8,30.05,ESE,114,0.0,3.0,77,0.00,,---,0.00,VWS V14.01,2013-07-06 17:17:00,
2013-07-06 12:23:00,79.7,72.2,30.05,SE,143,0.0,3.0,78,0.00,,---,0.00,VWS V14.01,2013-07-06 17:23:00,
2013-07-06 12:28:00,79.9,72.1,30.05,NE,34,0.0,0.0,77,0.00,,---,0.00,VWS V14.01,2013-07-06 17:28:00,
2013-07-06 12:30:00,79.9,72.4,30.05,NE,34,0.0,3.0,78,0.00,,---,0.00,VWS V14.01,2013-07-06 17:30:00,
2013-07-06 12:33:00,80.3,72.1,30.05,ESE,105,0.0,2.0,76,0.00,,---,0.00,VWS V14.01,2013-07-06 17:33:00,
2013-07-06 12:38:00,80.3,71.7,30.04,SE,128,1.0,3.0,75,0.00,,---,0.00,VWS V14.01,2013-07-06 17:38:00,
2013-07-06 12:43:00,80.8,71.7,30.04,WSW,242,2.0,3.0,74,0.00,,---,0.00,VWS V14.01,2013-07-06 17:43:00,
2013-07-06 12:48:00,81.4,73.9,30.04,North,6,0.0,3.0,78,0.00,,---,0.00,VWS V14.01,2013-07-06 17:48:00,
2013-07-06 12:53:00,81.5,73.2,30.04,North,8,1.0,3.0,76,0.00,,---,0.00,VWS V14.01,2013-07-06 17:53:00,
2013-07-06 12:58:00,81.2,73.3,30.04,ENE,64,0.0,0.0,77,0.00,,---,0.00,VWS V14.01,2013-07-06 17:58:00,
2013-07-06 13:00:00,81.2,72.5,30.04,ENE,64,0.0,3.0,75,0.00,,---,0.00,VWS V14.01,2013-07-06 18:00:00,
2013-07-06 13:03:00,80.4,72.5,30.03,NE,35,0.0,3.0,77,0.00,,---,0.00,VWS V14.01,2013-07-06 18:03:00,
2013-07-06 13:08:00,79.7,73.0,30.03,ENE,72,0.0,3.0,80,0.00,,---,0.00,VWS V14.01,2013-07-06 18:08:00,
2013-07-06 13:13:00,79.0,72.3,30.03,ESE,119,0.0,3.0,80,0.00,,---,0.00,VWS V14.01,2013-07-06 18:13:00,
2013-07-06 13:18:00,78.9,72.6,30.03,East,95,1.0,3.0,81,0.00,,---,0.00,VWS V14.01,2013-07-06 18:18:00,
2013-07-06 13:23:00,79.0,73.0,30.03,North,350,0.0,3.0,82,0.00,,---,0.00,VWS V14.01,2013-07-06 18:23:00,
2013-07-06 13:29:00,78.8,72.8,30.03,North,11,1.0,1.0,82,0.00,,---,0.00,VWS V14.01,2013-07-06 18:29:00,
2013-07-06 13:30:00,78.9,72.9,30.03,North,349,1.0,3.0,82,0.00,,---,0.00,VWS V14.01,2013-07-06 18:30:00,
2013-07-06 13:34:00,78.8,72.8,30.02,East,79,0.0,1.0,82,0.00,,---,0.00,VWS V14.01,2013-07-06 18:34:00,
2013-07-06 13:39:00,78.8,72.8,30.03,East,81,1.0,1.0,82,0.00,,---,0.00,VWS V14.01,2013-07-06 18:39:00,
2013-07-06 13:44:00,78.5,72.6,30.02,ESE,102,0.0,1.0,82,0.00,,---,0.00,VWS V14.01,2013-07-06 18:44:00,
2013-07-06 13:49:00,78.4,72.8,30.02,ESE,102,0.0,1.0,83,0.01,,---,0.01,VWS V14.01,2013-07-06 18:49:00,
2013-07-06 13:54:00,77.5,72.6,30.03,North,8,0.0,1.0,85,0.07,,---,0.07,VWS V14.01,2013-07-06 18:54:00,
2013-07-06 13:59:00,76.6,72.1,30.02,East,86,1.0,2.0,86,0.19,,---,0.19,VWS V14.01,2013-07-06 18:59:00,
2013-07-06 14:00:00,76.9,72.7,30.03,NNE,14,0.0,1.0,87,0.15,,---,0.15,VWS V14.01,2013-07-06 19:00:00,
2013-07-06 14:04:00,75.3,71.8,30.02,NNW,338,1.0,2.0,89,0.34,,---,0.34,VWS V14.01,2013-07-06 19:04:00,
2013-07-06 14:10:00,74.0,70.9,30.02,WSW,252,1.0,3.0,90,0.49,,---,0.49,VWS V14.01,2013-07-06 19:10:00,
2013-07-06 14:15:00,73.5,71.0,30.02,NE,46,1.0,3.0,92,0.53,,---,0.53,VWS V14.01,2013-07-06 19:15:00,
2013-07-06 14:20:00,73.6,71.8,30.02,SE,130,1.0,3.0,94,0.53,,---,0.53,VWS V14.01,2013-07-06 19:20:00,
2013-07-06 14:25:00,74.1,72.6,30.02,East,101,0.0,3.0,95,0.53,,---,0.53,VWS V14.01,2013-07-06 19:25:00,
2013-07-06 14:30:00,74.8,73.0,30.02,North,356,1.0,2.0,94,0.53,,---,0.53,VWS V14.01,2013-07-06 19:30:00,
2013-07-06 14:35:00,75.6,74.4,30.02,NE,39,0.0,2.0,96,0.53,,---,0.53,VWS V14.01,2013-07-06 19:35:00,
2013-07-06 14:40:00,76.0,74.5,30.01,ENE,64,0.0,2.0,95,0.53,,---,0.53,VWS V14.01,2013-07-06 19:40:00,
2013-07-06 14:45:00,76.5,75.0,30.01,ESE,118,0.0,2.0,95,0.53,,---,0.53,VWS V14.01,2013-07-06 19:45:00,
2013-07-06 14:50:00,76.9,74.7,30.01,SE,126,2.0,2.0,93,0.53,,---,0.53,VWS V14.01,2013-07-06 19:50:00,
2013-07-06 14:56:00,76.7,74.2,30.01,NE,53,2.0,3.0,92,0.53,,---,0.53,VWS V14.01,2013-07-06 19:56:00,
2013-07-06 15:00:00,76.7,74.2,30.01,NE,35,0.0,3.0,92,0.53,,---,0.53,VWS V14.01,2013-07-06 20:00:00,
2013-07-06 15:01:00,76.8,74.3,30.01,East,84,1.0,2.0,92,0.38,,---,0.53,VWS V14.01,2013-07-06 20:01:00,
2013-07-06 15:06:00,76.8,74.3,30.00,East,84,1.0,2.0,92,0.38,,---,0.53,VWS V14.01,2013-07-06 20:06:00,
2013-07-06 15:11:00,76.6,74.1,30.01,ENE,66,0.0,2.0,92,0.38,,---,0.53,VWS V14.01,2013-07-06 20:11:00,
2013-07-06 15:16:00,76.7,74.2,30.01,NE,43,1.0,4.0,92,0.38,,---,0.53,VWS V14.01,2013-07-06 20:16:00,
2013-07-06 15:21:00,76.5,73.7,30.01,NNW,348,2.0,7.0,91,0.38,,---,0.53,VWS V14.01,2013-07-06 20:21:00,
2013-07-06 15:26:00,75.9,72.8,30.01,East,86,2.0,7.0,90,0.38,,---,0.53,VWS V14.01,2013-07-06 20:26:00,
2013-07-06 15:30:00,75.8,72.7,30.01,NE,39,2.0,7.0,90,0.38,,---,0.53,VWS V14.01,2013-07-06 20:30:00,
2013-07-06 15:32:00,75.4,72.6,30.00,NNE,16,1.0,5.0,91,0.00,,---,0.53,VWS V14.01,2013-07-06 20:32:00,
2013-07-06 15:37:00,75.3,72.8,30.00,NE,53,0.0,5.0,92,0.00,,---,0.53,VWS V14.01,2013-07-06 20:37:00,
2013-07-06 15:42:00,75.5,73.3,30.00,NNE,15,1.0,5.0,93,0.00,,---,0.53,VWS V14.01,2013-07-06 20:42:00,
2013-07-06 15:47:00,75.3,72.8,30.00,East,86,2.0,5.0,92,0.00,,---,0.53,VWS V14.01,2013-07-06 20:47:00,
2013-07-06 15:52:00,75.3,72.8,30.00,ENE,57,2.0,5.0,92,0.00,,---,0.53,VWS V14.01,2013-07-06 20:52:00,
2013-07-06 15:57:00,75.3,72.8,29.99,ENE,76,2.0,5.0,92,0.00,,---,0.53,VWS V14.01,2013-07-06 20:57:00,
2013-07-06 16:00:00,75.3,72.8,29.99,North,359,2.0,5.0,92,0.00,,---,0.53,VWS V14.01,2013-07-06 21:00:00,
2013-07-06 16:02:00,75.1,72.9,29.99,NE,41,1.0,4.0,93,0.00,,---,0.53,VWS V14.01,2013-07-06 21:02:00,
2013-07-06 16:07:00,74.8,72.6,29.99,NNW,348,1.0,4.0,93,0.00,,---,0.53,VWS V14.01,2013-07-06 21:07:00,
2013-07-06 16:12:00,74.4,72.6,30.00,West,262,5.0,6.0,94,0.01,,---,0.54,VWS V14.01,2013-07-06 21:12:00,
2013-07-06 16:17:00,74.1,72.3,30.00,East,99,1.0,7.0,94,0.02,,---,0.55,VWS V14.01,2013-07-06 21:17:00,
2013-07-06 16:22:00,73.8,72.0,30.00,East,80,2.0,7.0,94,0.06,,---,0.59,VWS V14.01,2013-07-06 21:22:00,
2013-07-06 16:27:00,73.0,71.2,30.00,ENE,67,0.0,7.0,94,0.32,,---,0.85,VWS V14.01,2013-07-06 21:27:00,
2013-07-06 16:30:00,72.9,71.1,30.00,ENE,66,0.0,7.0,94,0.32,,---,0.85,VWS V14.01,2013-07-06 21:30:00,
2013-07-06 16:33:00,72.6,71.1,29.99,East,96,0.0,0.0,95,0.35,,---,0.88,VWS V14.01,2013-07-06 21:33:00,
2013-07-06 16:38:00,72.4,71.2,30.00,East,101,0.0,0.0,96,0.35,,---,0.88,VWS V14.01,2013-07-06 21:38:00,
2013-07-06 16:43:00,72.5,71.6,30.00,ESE,102,0.0,1.0,97,0.35,,---,0.88,VWS V14.01,2013-07-06 21:43:00,
2013-07-06 16:48:00,72.5,71.6,29.99,East,97,0.0,1.0,97,0.35,,---,0.88,VWS V14.01,2013-07-06 21:48:00,
2013-07-06 16:53:00,72.4,71.5,29.99,NE,51,0.0,2.0,97,0.36,,---,0.89,VWS V14.01,2013-07-06 21:53:00,
2013-07-06 16:58:00,72.2,71.3,29.99,ENE,76,0.0,0.0,97,0.36,,---,0.89,VWS V14.01,2013-07-06 21:58:00,
2013-07-06 17:00:00,72.3,71.4,29.99,ENE,76,0.0,2.0,97,0.36,,---,0.89,VWS V14.01,2013-07-06 22:00:00,
2013-07-06 17:03:00,72.1,71.5,29.99,North,6,0.0,1.0,98,0.37,,---,0.90,VWS V14.01,2013-07-06 22:03:00,
2013-07-06 17:08:00,71.9,71.3,29.99,ESE,112,0.0,1.0,98,0.38,,---,0.91,VWS V14.01,2013-07-06 22:08:00,
2013-07-06 17:14:00,71.8,71.2,29.99,ESE,105,0.0,2.0,98,0.43,,---,0.96,VWS V14.01,2013-07-06 22:14:00,
2013-07-06 17:19:00,71.7,71.1,29.98,NE,51,0.0,3.0,98,0.47,,---,1.00,VWS V14.01,2013-07-06 22:19:00,
2013-07-06 17:24:00,71.5,70.9,29.99,SE,136,2.0,3.0,98,0.53,,---,1.06,VWS V14.01,2013-07-06 22:24:00,
2013-07-06 17:29:00,71.3,70.7,29.98,East,97,0.0,4.0,98,0.28,,---,1.13,VWS V14.01,2013-07-06 22:29:00,
2013-07-06 17:30:00,71.4,70.8,29.98,East,84,0.0,3.0,98,0.58,,---,1.11,VWS V14.01,2013-07-06 22:30:00,
2013-07-06 17:34:00,71.2,70.6,29.98,NE,39,0.0,4.0,98,0.35,,---,1.20,VWS V14.01,2013-07-06 22:34:00,
2013-07-06 17:39:00,71.1,70.5,29.99,NW,323,1.0,4.0,98,0.44,,---,1.29,VWS V14.01,2013-07-06 22:39:00,
2013-07-06 17:44:00,71.1,70.8,29.98,SE,129,0.0,4.0,99,0.55,,---,1.40,VWS V14.01,2013-07-06 22:44:00,
2013-07-06 17:49:00,71.1,70.8,29.99,North,11,0.0,4.0,99,0.68,,---,1.53,VWS V14.01,2013-07-06 22:49:00,
2013-07-06 17:55:00,71.1,70.8,29.99,ENE,70,0.0,4.0,99,0.79,,---,1.64,VWS V14.01,2013-07-06 22:55:00,
2013-07-06 18:00:00,71.0,70.7,29.99,West,281,0.0,1.0,99,0.83,,---,1.72,VWS V14.01,2013-07-06 23:00:00,
2013-07-06 18:05:00,70.9,70.6,29.99,West,281,0.0,1.0,99,0.94,,---,1.83,VWS V14.01,2013-07-06 23:05:00,
2013-07-06 18:10:00,70.8,70.5,29.99,East,98,0.0,2.0,99,1.01,,---,1.90,VWS V14.01,2013-07-06 23:10:00,
2013-07-06 18:16:00,70.8,70.5,29.99,ESE,112,0.0,2.0,99,1.07,,---,1.96,VWS V14.01,2013-07-06 23:16:00,
2013-07-06 18:21:00,70.8,70.5,29.99,ESE,111,0.0,2.0,99,1.13,,---,2.02,VWS V14.01,2013-07-06 23:21:00,
2013-07-06 18:26:00,70.8,70.5,29.98,ENE,61,2.0,2.0,99,1.14,,---,2.03,VWS V14.01,2013-07-06 23:26:00,
2013-07-06 18:30:00,70.8,70.5,29.99,NE,49,0.0,2.0,99,1.14,,---,2.03,VWS V14.01,2013-07-06 23:30:00,
2013-07-06 18:31:00,70.7,70.4,29.99,East,96,0.0,2.0,99,0.93,,---,2.04,VWS V14.01,2013-07-06 23:31:00,
2013-07-06 18:38:00,70.8,70.5,29.98,ENE,72,1.0,2.0,99,0.94,,---,2.05,VWS V14.01,2013-07-06 23:38:00,
2013-07-06 18:43:00,70.8,70.5,29.98,East,94,1.0,2.0,99,0.95,,---,2.06,VWS V14.01,2013-07-06 23:43:00,
2013-07-06 18:48:00,70.7,70.4,29.98,East,84,0.0,4.0,99,0.96,,---,2.07,VWS V14.01,2013-07-06 23:48:00,
2013-07-06 18:53:00,70.7,70.4,29.98,ESE,102,1.0,4.0,99,0.96,,---,2.07,VWS V14.01,2013-07-06 23:53:00,
2013-07-06 18:59:00,70.7,70.4,29.98,East,99,1.0,2.0,99,0.39,,---,2.07,VWS V14.01,2013-07-06 23:59:00,
2013-07-06 19:00:00,70.7,70.4,29.98,ESE,103,1.0,5.0,99,0.96,,---,2.07,VWS V14.01,2013-07-07 00:00:00,
2013-07-06 19:04:00,70.6,70.3,29.98,ESE,117,0.0,2.0,99,0.39,,---,2.07,VWS V14.01,2013-07-07 00:04:00,
2013-07-06 19:09:00,70.6,70.3,29.98,East,88,0.0,2.0,99,0.39,,---,2.07,VWS V14.01,2013-07-07 00:09:00,
2013-07-06 19:15:00,70.7,70.4,29.98,ESE,111,1.0,2.0,99,0.39,,---,2.07,VWS V14.01,2013-07-07 00:15:00,
2013-07-06 19:20:00,70.7,70.4,29.98,ESE,112,0.0,2.0,99,0.39,,---,2.07,VWS V14.01,2013-07-07 00:20:00,
2013-07-06 19:25:00,70.7,70.4,29.98,ESE,111,0.0,2.0,99,0.39,,---,2.07,VWS V14.01,2013-07-07 00:25:00,
2013-07-06 19:30:00,70.7,70.7,29.99,ESE,111,0.0,0.0,100,0.04,,---,2.07,VWS V14.01,2013-07-07 00:30:00,
2013-07-06 19:35:00,70.7,70.7,29.99,ESE,122,0.0,0.0,100,0.04,,---,2.07,VWS V14.01,2013-07-07 00:35:00,
2013-07-06 19:40:00,70.7,70.7,29.99,ESE,121,0.0,0.0,100,0.04,,---,2.07,VWS V14.01,2013-07-07 00:40:00,
2013-07-06 19:45:00,70.7,70.7,29.99,ESE,122,0.0,0.0,100,0.04,,---,2.07,VWS V14.01,2013-07-07 00:45:00,
2013-07-06 19:51:00,70.6,70.6,29.99,ESE,121,0.0,0.0,100,0.04,,---,2.07,VWS V14.01,2013-07-07 00:51:00,
2013-07-06 19:56:00,70.5,70.5,29.99,SE,133,0.0,1.0,100,0.04,,---,2.07,VWS V14.01,2013-07-07 00:56:00,
2013-07-06 20:00:00,70.5,70.5,29.99,SE,133,0.0,1.0,100,0.04,,---,2.07,VWS V14.01,2013-07-07 01:00:00,
2013-07-06 20:01:00,70.5,70.5,29.99,South,188,0.0,1.0,100,0.00,,---,2.07,VWS V14.01,2013-07-07 01:01:00,
2013-07-06 20:06:00,70.4,70.4,29.99,South,189,0.0,1.0,100,0.00,,---,2.07,VWS V14.01,2013-07-07 01:06:00,
2013-07-06 20:11:00,70.3,70.3,29.98,South,188,0.0,1.0,100,0.00,,---,2.07,VWS V14.01,2013-07-07 01:11:00,
2013-07-06 20:16:00,70.3,70.3,29.98,South,188,0.0,1.0,100,0.00,,---,2.07,VWS V14.01,2013-07-07 01:16:00,
2013-07-06 20:21:00,70.3,70.3,29.98,East,82,0.0,1.0,100,0.00,,---,2.07,VWS V14.01,2013-07-07 01:21:00,
2013-07-06 20:27:00,70.3,70.3,29.99,East,82,0.0,1.0,100,0.00,,---,2.07,VWS V14.01,2013-07-07 01:27:00,
2013-07-06 20:30:00,70.3,70.3,29.99,East,82,0.0,1.0,100,0.00,,---,2.07,VWS V14.01,2013-07-07 01:30:00,
2013-07-06 20:32:00,70.3,70.3,29.99,East,82,1.0,1.0,100,0.00,,---,2.07,VWS V14.01,2013-07-07 01:32:00,
2013-07-06 20:37:00,70.3,70.3,29.99,SW,236,0.0,1.0,100,0.00,,---,2.07,VWS V14.01,2013-07-07 01:37:00,
2013-07-06 20:43:00,70.3,70.3,30.00,SW,236,0.0,1.0,100,0.00,,---,2.07,VWS V14.01,2013-07-07 01:43:00,
2013-07-06 20:48:00,70.3,70.3,30.00,WSW,242,0.0,1.0,100,0.00,,---,2.07,VWS V14.01,2013-07-07 01:48:00,
2013-07-06 20:53:00,70.4,70.4,30.00,West,277,0.0,1.0,100,0.00,,---,2.07,VWS V14.01,2013-07-07 01:53:00,
2013-07-06 20:58:00,70.4,70.4,30.00,West,277,0.0,0.0,100,0.00,,---,2.07,VWS V14.01,2013-07-07 01:58:00,
2013-07-06 21:00:00,70.4,70.4,30.00,West,277,0.0,1.0,100,0.00,,---,2.07,VWS V14.01,2013-07-07 02:00:00,
2013-07-06 21:03:00,70.5,70.5,30.00,West,277,0.0,0.0,100,0.00,,---,2.07,VWS V14.01,2013-07-07 02:03:00,
2013-07-06 21:08:00,70.4,70.4,30.00,West,277,0.0,0.0,100,0.00,,---,2.07,VWS V14.01,2013-07-07 02:08:00,
2013-07-06 21:14:00,70.4,70.4,30.00,West,277,0.0,0.0,100,0.00,,---,2.07,VWS V14.01,2013-07-07 02:14:00,
2013-07-06 21:19:00,70.4,70.4,30.01,West,277,0.0,0.0,100,0.00,,---,2.07,VWS V14.01,2013-07-07 02:19:00,
2013-07-06 21:24:00,70.3,70.3,30.01,West,277,0.0,0.0,100,0.00,,---,2.07,VWS V14.01,2013-07-07 02:24:00,
2013-07-06 21:29:00,70.3,70.3,30.01,West,277,0.0,0.0,100,0.00,,---,2.07,VWS V14.01,2013-07-07 02:29:00,
2013-07-06 21:30:00,70.3,70.3,30.01,West,277,0.0,0.0,100,0.00,,---,2.07,VWS V14.01,2013-07-07 02:30:00,
2013-07-06 21:35:00,70.3,70.3,30.01,West,278,0.0,0.0,100,0.00,,---,2.07,VWS V14.01,2013-07-07 02:35:00,
2013-07-06 21:40:00,70.2,70.2,30.01,West,277,0.0,0.0,100,0.00,,---,2.07,VWS V14.01,2013-07-07 02:40:00,
2013-07-06 21:45:00,70.1,70.1,30.01,West,277,0.0,0.0,100,0.00,,---,2.07,VWS V14.01,2013-07-07 02:45:00,
2013-07-06 21:50:00,70.1,70.1,30.01,West,277,0.0,0.0,100,0.00,,---,2.07,VWS V14.01,2013-07-07 02:50:00,
2013-07-06 21:56:00,70.1,70.1,30.02,SW,222,0.0,1.0,100,0.00,,---,2.07,VWS V14.01,2013-07-07 02:56:00,
2013-07-06 22:00:00,70.1,70.1,30.02,SW,221,0.0,1.0,100,0.00,,---,2.07,VWS V14.01,2013-07-07 03:00:00,
2013-07-06 22:01:00,70.1,70.1,30.02,SW,222,0.0,0.0,100,0.00,,---,2.07,VWS V14.01,2013-07-07 03:01:00,
2013-07-06 22:06:00,70.0,70.0,30.02,West,263,0.0,2.0,100,0.00,,---,2.07,VWS V14.01,2013-07-07 03:06:00,
2013-07-06 22:12:00,70.0,70.0,30.02,WSW,250,0.0,2.0,100,0.00,,---,2.07,VWS V14.01,2013-07-07 03:12:00,
2013-07-06 22:17:00,70.0,70.0,30.03,SW,231,0.0,3.0,100,0.00,,---,2.07,VWS V14.01,2013-07-07 03:17:00,
2013-07-06 22:22:00,69.9,69.9,30.02,SW,236,0.0,3.0,100,0.00,,---,2.07,VWS V14.01,2013-07-07 03:22:00,
2013-07-06 22:27:00,70.0,70.0,30.02,SW,214,0.0,3.0,100,0.00,,---,2.07,VWS V14.01,2013-07-07 03:27:00,
2013-07-06 22:30:00,70.0,70.0,30.02,East,101,1.0,3.0,100,0.00,,---,2.07,VWS V14.01,2013-07-07 03:30:00,
2013-07-06 22:32:00,70.0,70.0,30.02,SW,224,0.0,1.0,100,0.00,,---,2.07,VWS V14.01,2013-07-07 03:32:00,
2013-07-06 22:37:00,70.0,70.0,30.02,North,11,0.0,1.0,100,0.00,,---,2.07,VWS V14.01,2013-07-07 03:37:00,
2013-07-06 22:43:00,70.0,70.0,30.02,West,274,0.0,2.0,100,0.00,,---,2.07,VWS V14.01,2013-07-07 03:43:00,
2013-07-06 22:48:00,69.9,69.9,30.02,WSW,255,0.0,2.0,100,0.00,,---,2.07,VWS V14.01,2013-07-07 03:48:00,
2013-07-06 22:53:00,69.9,69.9,30.02,SW,233,0.0,2.0,100,0.00,,---,2.07,VWS V14.01,2013-07-07 03:53:00,
2013-07-06 22:59:00,69.8,69.8,30.02,SW,224,0.0,2.0,100,0.00,,---,0.00,VWS V14.01,2013-07-07 03:59:00,
2013-07-06 23:00:00,69.8,69.8,30.02,WSW,242,2.0,3.0,100,0.00,,---,2.07,VWS V14.01,2013-07-07 04:00:00,
2013-07-06 23:01:00,69.8,69.8,30.02,ESE,114,0.0,2.0,100,0.00,,---,0.00,VWS V14.01,2013-07-07 04:01:00,
2013-07-06 23:06:00,69.8,69.8,30.02,WSW,252,0.0,2.0,100,0.00,,---,0.00,VWS V14.01,2013-07-07 04:06:00,
2013-07-06 23:11:00,69.7,69.7,30.02,WSW,252,0.0,2.0,100,0.00,,---,0.00,VWS V14.01,2013-07-07 04:11:00,
2013-07-06 23:16:00,69.6,69.6,30.01,WSW,252,0.0,2.0,100,0.00,,---,0.00,VWS V14.01,2013-07-07 04:16:00,
2013-07-06 23:21:00,69.6,69.6,30.02,WSW,239,0.0,2.0,100,0.00,,---,0.00,VWS V14.01,2013-07-07 04:21:00,
2013-07-06 23:26:00,69.6,69.6,30.02,WSW,239,0.0,2.0,100,0.00,,---,0.00,VWS V14.01,2013-07-07 04:26:00,
2013-07-06 23:30:00,69.7,69.7,30.02,SW,228,1.0,5.0,100,0.00,,---,0.00,VWS V14.01,2013-07-07 04:30:00,
2013-07-06 23:31:00,69.7,69.7,30.02,South,183,1.0,2.0,100,0.00,,---,0.00,VWS V14.01,2013-07-07 04:31:00,
2013-07-06 23:36:00,69.7,69.7,30.02,WNW,291,1.0,3.0,100,0.00,,---,0.00,VWS V14.01,2013-07-07 04:36:00,
2013-07-06 23:41:00,69.7,69.7,30.02,ESE,117,0.0,3.0,100,0.00,,---,0.00,VWS V14.01,2013-07-07 04:41:00,
2013-07-06 23:46:00,69.7,69.7,30.02,WSW,239,1.0,3.0,100,0.00,,---,0.00,VWS V14.01,2013-07-07 04:46:00,
2013-07-06 23:51:00,69.7,69.7,30.02,WSW,243,0.0,3.0,100,0.00,,---,0.00,VWS V14.01,2013-07-07 04:51:00,
2013-07-06 23:56:00,69.7,69.7,30.01,WSW,243,0.0,3.0,100,0.00,,---,0.00,VWS V14.01,2013-07-07 04:56:00,